| time (UTC) | temp F | wind direction | speed MPH | gust MPH | rain 1hr in | rain 24hr in | rain mn in | humidity % | barometer mb |
| 20260508130438 | 56 | 235 | 1.0 | 2.0 | 0.00 | 0.00 | 0.00 | 55 | 1012.7 |
| 20260508125933 | 56 | 26 | 0.0 | 3.0 | 0.00 | 0.00 | 0.00 | 56 | 1012.8 |
| 20260508125430 | 55 | 269 | 0.0 | 1.0 | 0.00 | 0.00 | 0.00 | 58 | 1012.8 |
| 20260508124928 | 55 | 30 | 1.0 | 2.0 | 0.00 | 0.00 | 0.00 | 59 | 1012.6 |
| 20260508124425 | 54 | 324 | 0.0 | 3.0 | 0.00 | 0.00 | 0.00 | 61 | 1012.6 |
| 20260508123923 | 54 | 190 | 2.0 | 2.0 | 0.00 | 0.00 | 0.00 | 62 | 1012.5 |
| 20260508123421 | 54 | 186 | 1.0 | 3.0 | 0.00 | 0.00 | 0.00 | 63 | 1012.5 |
| 20260508122917 | 53 | 48 | 0.0 | 3.0 | 0.00 | 0.00 | 0.00 | 71 | 1012.5 |
| 20260508122415 | 52 | 290 | 2.0 | 2.0 | 0.00 | 0.00 | 0.00 | 71 | 1012.4 |
| 20260508121912 | 51 | 127 | 0.0 | 1.0 | 0.00 | 0.00 | 0.00 | 78 | 1012.3 |
| 20260508121410 | 50 | 175 | 0.0 | 2.0 | 0.00 | 0.00 | 0.00 | 78 | 1012.2 |
| 20260508120907 | 48 | 126 | 1.0 | 2.0 | 0.00 | 0.00 | 0.00 | 84 | 1012.2 |
| 20260508120405 | 46 | 344 | 0.0 | 2.0 | 0.00 | 0.00 | 0.00 | 96 | 1012.3 |
| 20260508115902 | 47 | 66 | 1.0 | 3.0 | 0.00 | 0.00 | 0.00 | 97 | 1012.1 |
| 20260508115400 | 47 | 69 | 2.0 | 3.0 | 0.00 | 0.00 | 0.00 | 98 | 1012.0 |
| 20260508114856 | 46 | 112 | 0.0 | 2.0 | 0.00 | 0.00 | 0.00 | 98 | 1011.9 |
| 20260508114353 | 46 | 114 | 1.0 | 3.0 | 0.00 | 0.00 | 0.00 | 98 | 1012.2 |
| 20260508113849 | 45 | 146 | 2.0 | 3.0 | 0.00 | 0.00 | 0.00 | 98 | 1011.8 |
| 20260508113348 | 44 | 130 | 2.0 | 3.0 | 0.00 | 0.00 | 0.00 | 98 | 1011.9 |
| 20260508112844 | 44 | 173 | 1.0 | 3.0 | 0.00 | 0.00 | 0.00 | 98 | 1011.7 |
| 20260508112341 | 43 | 106 | 1.0 | 3.0 | 0.00 | 0.00 | 0.00 | 97 | 1011.6 |
| 20260508111838 | 43 | 98 | 2.0 | 3.0 | 0.00 | 0.00 | 0.00 | 97 | 1011.6 |
| 20260508111335 | 43 | 125 | 2.0 | 3.0 | 0.00 | 0.00 | 0.00 | 97 | 1011.5 |
| 20260508110832 | 42 | 114 | 2.0 | 3.0 | 0.00 | 0.00 | 0.00 | 97 | 1011.6 |
| 20260508110330 | 42 | 120 | 2.0 | 3.0 | 0.00 | 0.00 | 0.00 | 97 | 1011.7 |
| 20260508105829 | 42 | 91 | 2.0 | 3.0 | 0.00 | 0.00 | 0.00 | 97 | 1011.4 |
| 20260508105326 | 42 | 89 | 2.0 | 3.0 | 0.00 | 0.00 | 0.00 | 97 | 1011.3 |
| 20260508104823 | 42 | 85 | 2.0 | 3.0 | 0.00 | 0.00 | 0.00 | 97 | 1011.3 |
| 20260508104320 | 42 | 99 | 2.0 | 3.0 | 0.00 | 0.00 | 0.00 | 97 | 1011.1 |
| 20260508103817 | 42 | 92 | 1.0 | 3.0 | 0.00 | 0.00 | 0.00 | 97 | 1011.1 |
| 20260508103314 | 42 | 118 | 2.0 | 3.0 | 0.00 | 0.00 | 0.00 | 97 | 1011.1 |
| 20260508102812 | 42 | 115 | 1.0 | 4.0 | 0.00 | 0.00 | 0.00 | 97 | 1011.1 |
| 20260508102310 | 42 | 113 | 2.0 | 4.0 | 0.00 | 0.00 | 0.00 | 97 | 1010.8 |
| 20260508101806 | 43 | 110 | 2.0 | 3.0 | 0.00 | 0.00 | 0.00 | 97 | 1010.7 |
| 20260508101304 | 43 | 112 | 2.0 | 2.0 | 0.00 | 0.00 | 0.00 | 97 | 1011.0 |
| 20260508100801 | 43 | 107 | 2.0 | 3.0 | 0.00 | 0.00 | 0.00 | 97 | 1010.9 |
| 20260508100300 | 43 | 102 | 2.0 | 3.0 | 0.00 | 0.00 | 0.00 | 97 | 1010.6 |
| 20260508095755 | 43 | 103 | 2.0 | 2.0 | 0.00 | 0.00 | 0.00 | 97 | 1010.9 |
| 20260508095253 | 44 | 89 | 2.0 | 3.0 | 0.00 | 0.00 | 0.00 | 97 | 1010.7 |
| 20260508094749 | 44 | 120 | 2.0 | 3.0 | 0.00 | 0.00 | 0.00 | 97 | 1010.6 |
| 20260508094247 | 44 | 106 | 2.0 | 3.0 | 0.00 | 0.00 | 0.00 | 97 | 1010.7 |
| 20260508093744 | 44 | 121 | 1.0 | 2.0 | 0.00 | 0.00 | 0.00 | 97 | 1010.5 |
| 20260508093241 | 44 | 141 | 0.0 | 2.0 | 0.00 | 0.00 | 0.00 | 97 | 1010.6 |
| 20260508092738 | 44 | 101 | 0.0 | 2.0 | 0.00 | 0.00 | 0.00 | 97 | 1010.6 |
| 20260508092236 | 44 | 136 | 1.0 | 3.0 | 0.00 | 0.00 | 0.00 | 97 | 1010.6 |
| 20260508091734 | 44 | 114 | 2.0 | 2.0 | 0.00 | 0.00 | 0.00 | 97 | 1010.4 |
| 20260508091231 | 45 | 127 | 2.0 | 3.0 | 0.00 | 0.00 | 0.00 | 97 | 1010.6 |
| 20260508090728 | 45 | 95 | 0.0 | 3.0 | 0.00 | 0.00 | 0.00 | 97 | 1010.3 |
| 20260508090226 | 45 | 94 | 1.0 | 2.0 | 0.00 | 0.00 | 0.00 | 97 | 1010.4 |
| 20260508085722 | 45 | 103 | 1.0 | 2.0 | 0.00 | 0.00 | 0.00 | 97 | 1010.3 |
| 20260508085219 | 45 | 130 | 2.0 | 2.0 | 0.00 | 0.00 | 0.00 | 97 | 1010.2 |
| 20260508084715 | 45 | 103 | 0.0 | 3.0 | 0.00 | 0.00 | 0.00 | 97 | 1010.1 |
| 20260508084213 | 45 | 101 | 0.0 | 3.0 | 0.00 | 0.00 | 0.00 | 97 | 1009.9 |
| 20260508083710 | 45 | 138 | 1.0 | 2.0 | 0.00 | 0.00 | 0.00 | 97 | 1010.0 |
| 20260508083207 | 45 | 150 | 1.0 | 3.0 | 0.00 | 0.00 | 0.00 | 97 | 1009.7 |
| 20260508082702 | 45 | 136 | 2.0 | 2.0 | 0.00 | 0.00 | 0.00 | 97 | 1009.7 |
| 20260508082200 | 45 | 87 | 1.0 | 3.0 | 0.00 | 0.00 | 0.00 | 97 | 1009.8 |
| 20260508081657 | 45 | 135 | 0.0 | 3.0 | 0.00 | 0.00 | 0.00 | 97 | 1009.6 |
| 20260508081153 | 46 | 126 | 0.0 | 2.0 | 0.00 | 0.00 | 0.00 | 97 | 1009.5 |
| 20260508080651 | 46 | 99 | 1.0 | 3.0 | 0.00 | 0.00 | 0.00 | 97 | 1009.6 |
| 20260508080149 | 46 | 141 | 0.0 | 2.0 | 0.00 | 0.00 | 0.00 | 97 | 1009.6 |
| 20260508075645 | 46 | 79 | 1.0 | 2.0 | 0.00 | 0.00 | 0.00 | 97 | 1009.4 |
| 20260508075142 | 46 | 142 | 0.0 | 2.0 | 0.00 | 0.00 | 0.00 | 97 | 1009.4 |
| 20260508074640 | 46 | 112 | 0.0 | 2.0 | 0.00 | 0.00 | 0.00 | 97 | 1009.4 |
| 20260508074137 | 46 | 136 | 0.0 | 2.0 | 0.00 | 0.00 | 0.00 | 97 | 1009.5 |
| 20260508073634 | 46 | 125 | 1.0 | 3.0 | 0.00 | 0.00 | 0.00 | 97 | 1009.4 |
| 20260508073132 | 46 | 222 | 0.0 | 3.0 | 0.00 | 0.00 | 0.00 | 97 | 1009.2 |
| 20260508072627 | 46 | 224 | 1.0 | 2.0 | 0.00 | 0.00 | 0.00 | 97 | 1009.2 |
| 20260508072124 | 46 | 135 | 2.0 | 2.0 | 0.00 | 0.00 | 0.00 | 97 | 1009.2 |
| 20260508071622 | 46 | 134 | 2.0 | 2.0 | 0.00 | 0.00 | 0.00 | 97 | 1009.1 |
| 20260508071120 | 46 | 175 | 2.0 | 2.0 | 0.00 | 0.00 | 0.00 | 97 | 1009.2 |
| 20260508070617 | 45 | 118 | 1.0 | 2.0 | 0.00 | 0.00 | 0.00 | 97 | 1008.9 |
| 20260508070115 | 45 | 139 | 0.0 | 2.0 | 0.00 | 0.00 | 0.00 | 97 | 1008.9 |
| 20260508065607 | 45 | 117 | 2.0 | 3.0 | 0.00 | 0.00 | 0.00 | 97 | 1008.7 |
| 20260508065105 | 45 | 133 | 2.0 | 2.0 | 0.00 | 0.00 | 0.00 | 97 | 1008.8 |
| 20260508064602 | 45 | 129 | 0.0 | 2.0 | 0.00 | 0.00 | 0.00 | 97 | 1008.7 |
| 20260508064100 | 45 | 147 | 1.0 | 2.0 | 0.00 | 0.00 | 0.00 | 97 | 1008.7 |
| 20260508063557 | 45 | 122 | 2.0 | 2.0 | 0.00 | 0.00 | 0.00 | 97 | 1008.6 |
| 20260508063055 | 45 | 86 | 2.0 | 2.0 | 0.00 | 0.00 | 0.00 | 97 | 1008.5 |
| 20260508062552 | 45 | 127 | 1.0 | 2.0 | 0.00 | 0.00 | 0.00 | 97 | 1008.5 |
| 20260508062049 | 45 | 109 | 1.0 | 2.0 | 0.00 | 0.00 | 0.00 | 97 | 1008.5 |
| 20260508061546 | 45 | 117 | 1.0 | 2.0 | 0.00 | 0.00 | 0.00 | 96 | 1008.5 |
| 20260508061043 | 45 | 86 | 1.0 | 2.0 | 0.00 | 0.00 | 0.00 | 96 | 1008.5 |
| 20260508060540 | 45 | 97 | 1.0 | 2.0 | 0.00 | 0.00 | 0.00 | 96 | 1008.7 |
| 20260508060038 | 46 | 115 | 1.0 | 3.0 | 0.00 | 0.00 | 0.00 | 96 | 1008.5 |
| 20260508055533 | 46 | 155 | 0.0 | 2.0 | 0.00 | 0.00 | 0.00 | 96 | 1008.4 |
| 20260508055030 | 46 | 106 | 2.0 | 3.0 | 0.00 | 0.00 | 0.00 | 96 | 1008.4 |
| 20260508054526 | 46 | 98 | 2.0 | 2.0 | 0.00 | 0.00 | 0.00 | 96 | 1008.4 |
| 20260508054024 | 46 | 118 | 1.0 | 3.0 | 0.00 | 0.00 | 0.00 | 96 | 1008.3 |
| 20260508053520 | 46 | 112 | 2.0 | 3.0 | 0.00 | 0.00 | 0.00 | 96 | 1008.3 |
| 20260508053019 | 46 | 126 | 2.0 | 3.0 | 0.00 | 0.00 | 0.00 | 96 | 1008.5 |
| 20260508052516 | 46 | 106 | 2.0 | 3.0 | 0.00 | 0.00 | 0.00 | 96 | 1008.4 |
| 20260508052012 | 46 | 116 | 2.0 | 3.0 | 0.00 | 0.00 | 0.00 | 96 | 1008.3 |
| 20260508051509 | 46 | 98 | 1.0 | 2.0 | 0.00 | 0.00 | 0.00 | 96 | 1008.5 |
| 20260508051004 | 46 | 117 | 1.0 | 3.0 | 0.00 | 0.00 | 0.00 | 96 | 1008.4 |
| 20260508050501 | 46 | 99 | 1.0 | 2.0 | 0.00 | 0.00 | 0.00 | 96 | 1008.3 |
| 20260508045957 | 46 | 110 | 2.0 | 2.0 | 0.00 | 0.00 | 0.00 | 96 | 1008.7 |
| 20260508045454 | 46 | 101 | 0.0 | 3.0 | 0.00 | 0.00 | 0.00 | 96 | 1008.3 |
| 20260508044952 | 46 | 112 | 1.0 | 3.0 | 0.00 | 0.00 | 0.00 | 96 | 1008.5 |
| 20260508044449 | 47 | 136 | 2.0 | 3.0 | 0.00 | 0.00 | 0.00 | 96 | 1008.3 |
| 20260508043944 | 46 | 149 | 2.0 | 2.0 | 0.00 | 0.00 | 0.00 | 96 | 1008.4 |
| 20260508043442 | 47 | 140 | 1.0 | 2.0 | 0.00 | 0.00 | 0.00 | 96 | 1008.2 |
| 20260508042938 | 47 | 136 | 2.0 | 2.0 | 0.00 | 0.00 | 0.00 | 96 | 1008.4 |
| 20260508042436 | 47 | 105 | 0.0 | 2.0 | 0.00 | 0.00 | 0.00 | 96 | 1008.3 |
| 20260508041932 | 47 | 148 | 1.0 | 2.0 | 0.00 | 0.00 | 0.00 | 96 | 1008.3 |
| 20260508041429 | 46 | 147 | 0.0 | 3.0 | 0.00 | 0.00 | 0.00 | 96 | 1008.3 |
| 20260508040926 | 46 | 133 | 1.0 | 2.0 | 0.00 | 0.00 | 0.00 | 96 | 1008.2 |
| 20260508040423 | 46 | 103 | 1.0 | 3.0 | 0.00 | 0.00 | 0.00 | 95 | 1008.1 |
| 20260508035921 | 46 | 123 | 2.0 | 3.0 | 0.00 | 0.03 | 0.03 | 95 | 1008.0 |
| 20260508035417 | 46 | 107 | 2.0 | 2.0 | 0.00 | 0.03 | 0.03 | 95 | 1008.2 |
| 20260508034914 | 47 | 122 | 2.0 | 2.0 | 0.00 | 0.03 | 0.03 | 96 | 1008.1 |
| 20260508034412 | 47 | 134 | 0.0 | 2.0 | 0.00 | 0.03 | 0.03 | 96 | 1008.2 |
| 20260508033908 | 46 | 116 | 0.0 | 3.0 | 0.00 | 0.03 | 0.03 | 96 | 1007.9 |
| 20260508033406 | 46 | 144 | 1.0 | 2.0 | 0.00 | 0.03 | 0.03 | 95 | 1008.1 |
| 20260508032904 | 46 | 123 | 1.0 | 2.0 | 0.00 | 0.03 | 0.03 | 95 | 1007.8 |
| 20260508032401 | 46 | 139 | 2.0 | 3.0 | 0.00 | 0.03 | 0.03 | 95 | 1007.9 |
| 20260508031857 | 46 | 164 | 2.0 | 3.0 | 0.00 | 0.03 | 0.03 | 95 | 1008.0 |
| 20260508031354 | 46 | 122 | 2.0 | 3.0 | 0.00 | 0.03 | 0.03 | 95 | 1007.8 |
| 20260508030850 | 46 | 137 | 2.0 | 3.0 | 0.00 | 0.03 | 0.03 | 95 | 1007.7 |
| 20260508030348 | 46 | 169 | 2.0 | 3.0 | 0.00 | 0.03 | 0.03 | 95 | 1007.7 |
| 20260508025845 | 46 | 163 | 0.0 | 3.0 | 0.00 | 0.03 | 0.03 | 94 | 1007.8 |
| 20260508025341 | 46 | 131 | 3.0 | 3.0 | 0.00 | 0.03 | 0.03 | 94 | 1007.8 |
| 20260508024838 | 46 | 117 | 0.0 | 3.0 | 0.00 | 0.03 | 0.03 | 94 | 1008.0 |
| 20260508024335 | 46 | 180 | 1.0 | 3.0 | 0.00 | 0.03 | 0.03 | 94 | 1007.9 |
| 20260508023831 | 46 | 97 | 2.0 | 3.0 | 0.00 | 0.03 | 0.03 | 94 | 1008.0 |
| 20260508023328 | 46 | 119 | 2.0 | 2.0 | 0.00 | 0.03 | 0.03 | 94 | 1007.9 |
| 20260508022825 | 46 | 126 | 1.0 | 2.0 | 0.00 | 0.03 | 0.03 | 94 | 1008.0 |
| 20260508022315 | 46 | 143 | 1.0 | 2.0 | 0.00 | 0.03 | 0.03 | 93 | 1007.9 |
| 20260508021813 | 46 | 116 | 0.0 | 2.0 | 0.00 | 0.03 | 0.03 | 93 | 1007.9 |
| 20260508021308 | 47 | 127 | 2.0 | 2.0 | 0.00 | 0.03 | 0.03 | 93 | 1008.0 |
| 20260508020805 | 47 | 124 | 0.0 | 2.0 | 0.00 | 0.03 | 0.03 | 93 | 1007.9 |
| 20260508020303 | 47 | 122 | 1.0 | 2.0 | 0.00 | 0.03 | 0.03 | 93 | 1007.9 |
| 20260508015759 | 47 | 129 | 1.0 | 1.0 | 0.00 | 0.03 | 0.03 | 93 | 1007.9 |
| 20260508015257 | 47 | 103 | 0.0 | 1.0 | 0.00 | 0.03 | 0.03 | 93 | 1008.0 |
| 20260508014753 | 47 | 104 | 1.0 | 2.0 | 0.00 | 0.03 | 0.03 | 93 | 1008.0 |
| 20260508014250 | 47 | 134 | 0.0 | 1.0 | 0.00 | 0.03 | 0.03 | 93 | 1007.7 |
| 20260508013746 | 47 | 138 | 1.0 | 2.0 | 0.00 | 0.03 | 0.03 | 92 | 1007.7 |
| 20260508013243 | 48 | 129 | 2.0 | 2.0 | 0.00 | 0.03 | 0.03 | 92 | 1007.7 |
| 20260508012740 | 48 | 95 | 0.0 | 1.0 | 0.00 | 0.03 | 0.03 | 92 | 1007.7 |
| 20260508012237 | 48 | 100 | 1.0 | 1.0 | 0.00 | 0.03 | 0.03 | 92 | 1007.7 |
| 20260508011735 | 48 | 120 | 1.0 | 2.0 | 0.00 | 0.03 | 0.03 | 91 | 1007.5 |
| 20260508011232 | 48 | 117 | 1.0 | 2.0 | 0.00 | 0.03 | 0.03 | 90 | 1007.4 |
| 20260508010729 | 49 | 100 | 1.0 | 2.0 | 0.00 | 0.03 | 0.03 | 90 | 1007.6 |
| 20260508010227 | 49 | 113 | 1.0 | 2.0 | 0.00 | 0.03 | 0.03 | 90 | 1007.4 |
| 20260508005724 | 49 | 117 | 0.0 | 1.0 | 0.00 | 0.03 | 0.03 | 90 | 1007.2 |
| 20260508005221 | 49 | 148 | 0.0 | 1.0 | 0.00 | 0.03 | 0.03 | 90 | 1007.2 |
| 20260508004716 | 50 | 113 | 0.0 | 0.0 | 0.00 | 0.03 | 0.03 | 90 | 1007.1 |
| 20260508004213 | 50 | 113 | 1.0 | 2.0 | 0.00 | 0.03 | 0.03 | 89 | 1007.2 |
| 20260508003709 | 50 | 98 | 1.0 | 2.0 | 0.00 | 0.03 | 0.03 | 89 | 1006.8 |
| 20260508003207 | 50 | 104 | 0.0 | 2.0 | 0.00 | 0.03 | 0.03 | 89 | 1007.1 |
| 20260508002703 | 50 | 119 | 1.0 | 2.0 | 0.00 | 0.03 | 0.03 | 89 | 1007.0 |
| 20260508002201 | 50 | 127 | 0.0 | 1.0 | 0.00 | 0.03 | 0.03 | 89 | 1007.1 |
| 20260508001656 | 51 | 119 | 1.0 | 2.0 | 0.00 | 0.03 | 0.03 | 89 | 1007.0 |
| 20260508001152 | 51 | 126 | 0.0 | 2.0 | 0.00 | 0.03 | 0.03 | 90 | 1006.8 |
| 20260508000648 | 51 | 135 | 1.0 | 2.0 | 0.00 | 0.03 | 0.03 | 90 | 1006.7 |
| 20260508000146 | 51 | 124 | 1.0 | 2.0 | 0.00 | 0.03 | 0.03 | 90 | 1006.5 |
| 20260507235642 | 51 | 115 | 2.0 | 2.0 | 0.00 | 0.03 | 0.03 | 90 | 1006.7 |
| 20260507235140 | 51 | 122 | 2.0 | 2.0 | 0.00 | 0.03 | 0.03 | 90 | 1006.3 |
| 20260507234637 | 51 | 100 | 1.0 | 1.0 | 0.00 | 0.03 | 0.03 | 89 | 1006.4 |
| 20260507234132 | 52 | 135 | 0.0 | 0.0 | 0.00 | 0.03 | 0.03 | 89 | 1006.1 |
| 20260507233630 | 52 | 81 | 0.0 | 1.0 | 0.00 | 0.03 | 0.03 | 88 | 1006.4 |
| 20260507233128 | 52 | 95 | 0.0 | 1.0 | 0.00 | 0.03 | 0.03 | 88 | 1006.3 |
| 20260507232625 | 53 | 81 | 2.0 | 2.0 | 0.00 | 0.03 | 0.03 | 87 | 1006.3 |
| 20260507232122 | 53 | 103 | 0.0 | 1.0 | 0.00 | 0.03 | 0.03 | 86 | 1006.3 |
| 20260507231618 | 53 | 76 | 1.0 | 1.0 | 0.00 | 0.03 | 0.03 | 85 | 1006.2 |
| 20260507231115 | 53 | 89 | 0.0 | 0.0 | 0.00 | 0.03 | 0.03 | 84 | 1006.0 |
| 20260507230611 | 52 | 88 | 0.0 | 0.0 | 0.00 | 0.03 | 0.03 | 83 | 1006.2 |
| 20260507230109 | 53 | 64 | 0.0 | 1.0 | 0.00 | 0.03 | 0.03 | 84 | 1006.0 |
| 20260507225603 | 53 | 80 | 0.0 | 1.0 | 0.00 | 0.03 | 0.03 | 84 | 1006.1 |
| 20260507225100 | 53 | 102 | 0.0 | 2.0 | 0.00 | 0.03 | 0.03 | 84 | 1006.2 |
| 20260507224555 | 53 | 94 | 2.0 | 2.0 | 0.00 | 0.03 | 0.03 | 82 | 1006.0 |
| 20260507224052 | 54 | 66 | 0.0 | 2.0 | 0.00 | 0.03 | 0.03 | 82 | 1006.1 |
| 20260507223548 | 54 | 48 | 0.0 | 2.0 | 0.00 | 0.03 | 0.03 | 76 | 1006.1 |
| 20260507223046 | 54 | 154 | 0.0 | 2.0 | 0.00 | 0.03 | 0.03 | 78 | 1006.2 |
| 20260507222543 | 54 | 124 | 0.0 | 2.0 | 0.00 | 0.03 | 0.03 | 78 | 1006.1 |
| 20260507222039 | 54 | 81 | 2.0 | 3.0 | 0.00 | 0.03 | 0.03 | 80 | 1006.1 |
| 20260507221535 | 54 | 93 | 2.0 | 2.0 | 0.00 | 0.03 | 0.03 | 82 | 1006.2 |
| 20260507221032 | 53 | 174 | 0.0 | 3.0 | 0.00 | 0.03 | 0.03 | 79 | 1006.2 |
| 20260507220530 | 53 | 86 | 2.0 | 2.0 | 0.00 | 0.03 | 0.03 | 84 | 1006.0 |
| 20260507220027 | 54 | 113 | 0.0 | 2.0 | 0.00 | 0.03 | 0.03 | 82 | 1006.1 |
| 20260507215523 | 54 | 168 | 0.0 | 0.0 | 0.00 | 0.03 | 0.03 | 84 | 1006.2 |
| 20260507215021 | 53 | 50 | 0.0 | 1.0 | 0.00 | 0.03 | 0.03 | 84 | 1006.3 |
| 20260507214518 | 53 | 114 | 1.0 | 3.0 | 0.00 | 0.03 | 0.03 | 84 | 1006.3 |
| 20260507214014 | 54 | 87 | 2.0 | 3.0 | 0.00 | 0.03 | 0.03 | 85 | 1006.3 |
| 20260507213510 | 53 | 141 | 0.0 | 2.0 | 0.00 | 0.03 | 0.03 | 86 | 1006.3 |
| 20260507213007 | 53 | 33 | 0.0 | 2.0 | 0.00 | 0.03 | 0.03 | 86 | 1006.3 |
| 20260507212503 | 53 | 141 | 3.0 | 3.0 | 0.00 | 0.03 | 0.03 | 89 | 1006.5 |
| 20260507212000 | 53 | 40 | 2.0 | 2.0 | 0.00 | 0.03 | 0.03 | 89 | 1006.4 |
| 20260507211456 | 52 | 89 | 1.0 | 2.0 | 0.00 | 0.03 | 0.03 | 89 | 1006.5 |
| 20260507210953 | 53 | 92 | 2.0 | 2.0 | 0.00 | 0.03 | 0.03 | 89 | 1006.5 |
| 20260507210450 | 52 | 108 | 1.0 | 2.0 | 0.00 | 0.03 | 0.03 | 89 | 1006.5 |
| 20260507205947 | 53 | 104 | 3.0 | 3.0 | 0.00 | 0.03 | 0.03 | 89 | 1006.4 |
| 20260507205444 | 53 | 96 | 1.0 | 2.0 | 0.00 | 0.03 | 0.03 | 88 | 1006.5 |
| 20260507204940 | 53 | 89 | 0.0 | 1.0 | 0.00 | 0.03 | 0.03 | 86 | 1006.3 |
| 20260507204436 | 52 | 59 | 1.0 | 2.0 | 0.00 | 0.03 | 0.03 | 85 | 1006.0 |
| 20260507203934 | 52 | 109 | 0.0 | 1.0 | 0.00 | 0.03 | 0.03 | 86 | 1006.2 |
| 20260507203431 | 52 | 68 | 0.0 | 1.0 | 0.00 | 0.03 | 0.03 | 87 | 1006.3 |
| 20260507202928 | 52 | 29 | 0.0 | 1.0 | 0.00 | 0.03 | 0.03 | 88 | 1006.6 |
| 20260507202419 | 53 | 30 | 1.0 | 1.0 | 0.00 | 0.03 | 0.03 | 82 | 1007.0 |
| 20260507201915 | 53 | 107 | 2.0 | 2.0 | 0.00 | 0.03 | 0.03 | 77 | 1006.9 |
| 20260507201410 | 53 | 208 | 3.0 | 3.0 | 0.00 | 0.03 | 0.03 | 77 | 1006.6 |
| 20260507200907 | 53 | 206 | 2.0 | 2.0 | 0.02 | 0.03 | 0.03 | 80 | 1006.2 |
| 20260507200403 | 53 | 44 | 2.0 | 2.0 | 0.02 | 0.03 | 0.03 | 88 | 1006.2 |
| 20260507195859 | 52 | 173 | 0.0 | 1.0 | 0.00 | 0.02 | 0.02 | 86 | 1006.3 |
| 20260507195356 | 52 | 35 | 1.0 | 2.0 | 0.00 | 0.02 | 0.02 | 84 | 1006.3 |
| 20260507194854 | 53 | 76 | 0.0 | 1.0 | 0.00 | 0.02 | 0.02 | 82 | 1006.6 |
| 20260507194350 | 53 | 38 | 0.0 | 1.0 | 0.00 | 0.02 | 0.02 | 80 | 1006.6 |
| 20260507193846 | 53 | 120 | 0.0 | 1.0 | 0.00 | 0.02 | 0.02 | 77 | 1006.5 |
| 20260507193344 | 53 | 157 | 0.0 | 1.0 | 0.00 | 0.02 | 0.02 | 73 | 1006.5 |
| 20260507192840 | 54 | 224 | 0.0 | 0.0 | 0.00 | 0.02 | 0.02 | 73 | 1006.5 |
| 20260507192336 | 55 | 27 | 0.0 | 0.0 | 0.00 | 0.02 | 0.02 | 69 | 1006.8 |
| 20260507191833 | 55 | 23 | 1.0 | 2.0 | 0.00 | 0.02 | 0.02 | 65 | 1006.7 |
| 20260507191329 | 55 | 218 | 0.0 | 2.0 | 0.00 | 0.02 | 0.02 | 62 | 1006.8 |
| 20260507190826 | 55 | 180 | 0.0 | 1.0 | 0.00 | 0.02 | 0.02 | 68 | 1006.8 |
| 20260507190324 | 55 | 22 | 0.0 | 1.0 | 0.00 | 0.02 | 0.02 | 66 | 1006.7 |
| 20260507185823 | 55 | 173 | 0.0 | 2.0 | 0.00 | 0.02 | 0.02 | 65 | 1006.6 |
| 20260507185319 | 55 | 212 | 2.0 | 2.0 | 0.00 | 0.02 | 0.02 | 59 | 1006.8 |
| 20260507184816 | 55 | 78 | 0.0 | 2.0 | 0.00 | 0.02 | 0.02 | 60 | 1006.8 |
| 20260507184315 | 55 | 223 | 0.0 | 3.0 | 0.00 | 0.02 | 0.02 | 59 | 1006.7 |
| 20260507183811 | 55 | 228 | 1.0 | 3.0 | 0.00 | 0.02 | 0.02 | 58 | 1006.7 |
| 20260507183308 | 55 | 287 | 0.0 | 2.0 | 0.00 | 0.02 | 0.02 | 60 | 1006.7 |
| 20260507182806 | 56 | 232 | 3.0 | 3.0 | 0.00 | 0.02 | 0.02 | 60 | 1006.9 |
| 20260507182301 | 55 | 269 | 1.0 | 2.0 | 0.00 | 0.02 | 0.02 | 60 | 1006.9 |
| 20260507181757 | 55 | 225 | 0.0 | 0.0 | 0.00 | 0.02 | 0.02 | 59 | 1006.9 |
| 20260507181253 | 56 | 205 | 1.0 | 1.0 | 0.00 | 0.02 | 0.02 | 57 | 1006.9 |
| 20260507180750 | 55 | 245 | 0.0 | 2.0 | 0.00 | 0.02 | 0.02 | 56 | 1007.2 |
| 20260507180247 | 55 | 255 | 0.0 | 2.0 | 0.00 | 0.02 | 0.02 | 59 | 1007.5 |
| 20260507175742 | 56 | 242 | 1.0 | 2.0 | 0.00 | 0.02 | 0.02 | 60 | 1007.4 |
| 20260507175240 | 55 | 231 | 1.0 | 2.0 | 0.00 | 0.02 | 0.02 | 59 | 1007.2 |
| 20260507174737 | 55 | 237 | 0.0 | 1.0 | 0.00 | 0.02 | 0.02 | 62 | 1007.2 |
| 20260507174235 | 55 | 186 | 0.0 | 0.0 | 0.00 | 0.02 | 0.02 | 62 | 1007.3 |
| 20260507173733 | 55 | 157 | 0.0 | 1.0 | 0.00 | 0.02 | 0.02 | 63 | 1007.7 |
| 20260507173229 | 55 | 89 | 0.0 | 1.0 | 0.00 | 0.02 | 0.02 | 64 | 1007.7 |
| 20260507172725 | 56 | 18 | 1.0 | 2.0 | 0.00 | 0.02 | 0.02 | 62 | 1007.9 |
| 20260507172217 | 56 | 80 | 0.0 | 2.0 | 0.00 | 0.02 | 0.02 | 59 | 1008.0 |
| 20260507171717 | 56 | 227 | 1.0 | 2.0 | 0.00 | 0.02 | 0.02 | 56 | 1008.0 |
| 20260507171215 | 56 | 224 | 0.0 | 2.0 | 0.00 | 0.02 | 0.02 | 54 | 1007.7 |
| 20260507170711 | 56 | 216 | 1.0 | 3.0 | 0.00 | 0.02 | 0.02 | 55 | 1007.5 |
| 20260507170208 | 57 | 304 | 0.0 | 2.0 | 0.00 | 0.02 | 0.02 | 54 | 1007.7 |
| 20260507165703 | 57 | 37 | 0.0 | 2.0 | 0.00 | 0.02 | 0.02 | 55 | 1007.7 |
| 20260507165200 | 57 | 55 | 0.0 | 1.0 | 0.00 | 0.02 | 0.02 | 54 | 1008.0 |
| 20260507164655 | 58 | 226 | 0.0 | 2.0 | 0.00 | 0.02 | 0.02 | 51 | 1007.8 |
| 20260507164148 | 57 | 217 | 0.0 | 2.0 | 0.00 | 0.02 | 0.02 | 53 | 1007.8 |
| 20260507163645 | 57 | 119 | 2.0 | 3.0 | 0.00 | 0.02 | 0.02 | 51 | 1007.7 |
| 20260507163143 | 57 | 100 | 2.0 | 2.0 | 0.00 | 0.02 | 0.02 | 54 | 1008.1 |
| 20260507162638 | 56 | 93 | 2.0 | 2.0 | 0.00 | 0.02 | 0.02 | 53 | 1008.2 |
| 20260507162135 | 56 | 126 | 2.0 | 3.0 | 0.00 | 0.02 | 0.02 | 53 | 1008.2 |
| 20260507161631 | 57 | 130 | 1.0 | 2.0 | 0.00 | 0.02 | 0.02 | 52 | 1008.4 |
| 20260507161128 | 57 | 180 | 1.0 | 2.0 | 0.00 | 0.02 | 0.02 | 52 | 1008.1 |
| 20260507160624 | 57 | 304 | 0.0 | 2.0 | 0.00 | 0.02 | 0.02 | 51 | 1008.4 |
| 20260507160121 | 57 | 233 | 0.0 | 4.0 | 0.00 | 0.02 | 0.02 | 51 | 1008.6 |
| 20260507155616 | 57 | 157 | 0.0 | 3.0 | 0.00 | 0.02 | 0.02 | 51 | 1008.2 |
| 20260507155114 | 57 | 168 | 1.0 | 3.0 | 0.00 | 0.02 | 0.02 | 53 | 1008.2 |
| 20260507154610 | 56 | 257 | 2.0 | 3.0 | 0.00 | 0.02 | 0.02 | 51 | 1008.6 |
| 20260507154107 | 56 | 246 | 0.0 | 3.0 | 0.00 | 0.02 | 0.02 | 53 | 1008.5 |
| 20260507153604 | 56 | 261 | 0.0 | 3.0 | 0.00 | 0.02 | 0.02 | 51 | 1008.4 |
| 20260507153100 | 56 | 176 | 4.0 | 4.0 | 0.00 | 0.02 | 0.02 | 50 | 1008.8 |
| 20260507152555 | 57 | 245 | 0.0 | 3.0 | 0.00 | 0.02 | 0.02 | 51 | 1008.6 |
| 20260507152047 | 57 | 214 | 0.0 | 1.0 | 0.00 | 0.02 | 0.02 | 53 | 1008.6 |
| 20260507151543 | 56 | 199 | 0.0 | 1.0 | 0.00 | 0.02 | 0.02 | 53 | 1008.4 |
| 20260507151040 | 57 | 241 | 2.0 | 2.0 | 0.00 | 0.02 | 0.02 | 52 | 1008.4 |
| 20260507150537 | 57 | 264 | 1.0 | 3.0 | 0.00 | 0.02 | 0.02 | 50 | 1008.4 |
| 20260507150034 | 57 | 225 | 0.0 | 3.0 | 0.00 | 0.02 | 0.02 | 50 | 1008.6 |
| 20260507145528 | 56 | 226 | 4.0 | 4.0 | 0.00 | 0.02 | 0.02 | 49 | 1008.8 |
| 20260507145027 | 56 | 219 | 8.0 | 8.0 | 0.00 | 0.02 | 0.02 | 48 | 1009.0 |
| 20260507144523 | 56 | 233 | 0.0 | 4.0 | 0.00 | 0.02 | 0.02 | 49 | 1008.6 |
| 20260507144021 | 57 | 263 | 2.0 | 3.0 | 0.00 | 0.02 | 0.02 | 50 | 1009.0 |
| 20260507143518 | 57 | 329 | 1.0 | 3.0 | 0.00 | 0.02 | 0.02 | 51 | 1009.0 |
| 20260507143015 | 57 | 244 | 0.0 | 5.0 | 0.00 | 0.02 | 0.02 | 53 | 1008.7 |
| 20260507142510 | 57 | 186 | 3.0 | 4.0 | 0.00 | 0.02 | 0.02 | 52 | 1008.8 |
| 20260507142007 | 57 | 249 | 1.0 | 5.0 | 0.00 | 0.02 | 0.02 | 54 | 1008.9 |
| 20260507141503 | 57 | 275 | 2.0 | 4.0 | 0.00 | 0.02 | 0.02 | 60 | 1008.9 |
| 20260507141000 | 57 | 56 | 0.0 | 5.0 | 0.00 | 0.02 | 0.02 | 63 | 1008.8 |
| 20260507140456 | 57 | 195 | 2.0 | 4.0 | 0.00 | 0.02 | 0.02 | 63 | 1008.7 |
| 20260507135954 | 57 | 268 | 2.0 | 5.0 | 0.00 | 0.02 | 0.02 | 62 | 1008.9 |
| 20260507135451 | 57 | 99 | 2.0 | 3.0 | 0.00 | 0.02 | 0.02 | 65 | 1008.6 |
| 20260507134948 | 57 | 218 | 1.0 | 2.0 | 0.00 | 0.02 | 0.02 | 70 | 1008.6 |
| 20260507134444 | 57 | 233 | 0.0 | 5.0 | 0.00 | 0.02 | 0.02 | 73 | 1008.4 |
| 20260507133941 | 57 | 196 | 3.0 | 3.0 | 0.00 | 0.02 | 0.02 | 72 | 1008.5 |
| 20260507133437 | 57 | 288 | 0.0 | 3.0 | 0.00 | 0.02 | 0.02 | 73 | 1008.8 |
| 20260507132936 | 56 | 206 | 2.0 | 4.0 | 0.00 | 0.02 | 0.02 | 76 | 1008.6 |
| 20260507132431 | 56 | 161 | 1.0 | 3.0 | 0.00 | 0.02 | 0.02 | 79 | 1008.7 |
| 20260507131928 | 56 | 307 | 3.0 | 4.0 | 0.00 | 0.02 | 0.02 | 78 | 1008.7 |
| 20260507131425 | 56 | 154 | 1.0 | 4.0 | 0.00 | 0.02 | 0.02 | 78 | 1008.6 |
| 20260507130922 | 57 | 223 | 4.0 | 4.0 | 0.00 | 0.02 | 0.02 | 78 | 1008.4 |